Погода в Медвежьем

Россия / Курганская область     55°17′18″N   65°57′41″E
темп.,
°C
ветер,
м/с
пор.,
м/с
влажн.,
%
обл.,
%
осадки,
мм/ч
давл.,
гПа
погр.,
м
27 февраля, сб
сб2723:00−29ю45960 0.0 103180
02:00−30ю44980 0.0 103071
05:00−31ю469821 0.0 103083
08:00−31ююв479759 0.0 1029111
11:00−26ююв479430 0.0 1028216
14:00−22юв589547 0.0 1026249
17:00−20юв6119573 0.0 1023327
20:00−16юв71494100 0.2 1021447
28 февраля, вс
вс2823:00−14юв71394100 0.7 1019542
02:00−14юв71194100 0.5 1016498
05:00−14юв61194100 0.9 1013421
08:00−14вюв61194100 0.4 1011403
11:00−12вюв61093100 0.7 1009431
14:00−10в71093100 0.2 1007488
17:00−10всв71194100 0.6 1006513
20:00−12всв61094100 0.7 1005415
1 марта, пн
пн123:00−13св61094100 1.1 1007359
02:00−15св5895100 0.5 1008370
05:00−17ссв4796100 0.6 1010247
08:00−19с379886 0.0 1012144
11:00−17с349385 0.1 1014315
14:00−14ссз348899 0.1 1015443
17:00−15ссз239499 0.1 101796
20:00−18сз229799 0.0 101820
2 марта, вт
вт223:00−19ссз119897 0.1 101820
02:00−20з119990 0.0 101820
05:00−18зсз019789 0.1 101720
08:00−18сз119787 0.1 101720
11:00−15юз119181 0.1 1016217
14:00−13зюз228599 0.1 1016478
17:00−14юз2293100 0.1 101660
20:00−17зюз229594 0.0 101620
3 марта, ср
ср323:00−19юз349888 0.1 101637
02:00−21юз339919 0.0 101627
05:00−22ююз34999 0.0 101635
08:00−22ю449816 0.0 101681
11:00−17ю589448 0.0 1015261
14:00−16ю689295 0.0 1015331
17:00−16ю6109396 0.0 1014325
20:00−14ю61194100 0.3 1013348